User: anonymous   Login
Location: Unspecified
(0.0000°N, 0.0000°E)
Time: 15:12:15
(UTC+00:00)
Language:

ISS - Orbit

View from above orbital plane
View from above orbital plane
View from above satellite
View from above satellite

Ground track
Ground track

The orbit data is extracted from the following two-line orbital elements,

1 25544U 98067A   17233.55831929  .00016717  00000-0  10270-3 0  9050
2 25544  51.6390  72.4442 0004937 168.7220 191.4044 15.54193401 31918
Epoch (UTC): 21 August 2017 13:23:58
Eccentricity: 0.0004937
inclination: 51.6390°
perigee height: 401 km
apogee height: 408 km
right ascension of ascending node: 72.4442°
argument of perigee: 168.7220°
revolutions per day: 15.54193401
mean anomaly at epoch: 191.4044°
orbit number at epoch: 3191

The dashed part of the orbit path shows where the satellite is in the earth's shadow,  

DLR